METAR AND TAF INFORMATION
METAR FOR SAOC
ADDS - METARS form results

(1234 UTC 27 June 2019)
Data provider http://aviationweather.gov/metar/data/
 
METAR text: SAOC 271200Z 36005KT CAVOK 03/M05 Q1005
Conditions at: SAOC (RIO CUARTO AIRPO, AR) observed 1200 UTC 27 June 2019
Temperature: 3.0°C (37°F)
Dewpoint: -5.0°C (23°F) [RH = 56%]
Pressure (altimeter): 29.68 inches Hg (1005.0 mb)
Winds: from the N (360 degrees) at 6 MPH (5 knots; 2.6 m/s)
Visibility: 6 or more miles (10+ km)
Ceiling: ceiling and visibility are OK
Clouds: unknown
Weather: no significant weather observed at this time

 AIRPORT MAP

 RUNWAY INFORMATION
Runway 18 Runway length 6808 ft Runway width 131 ft
Runway elevation 0 ft Runway displaced threshold 0 ft Runway heading 0
Runway 36 Runway length 6808 ft Runway width 131 ft
Runway elevation 0 ft Runway displaced threshold 0 ft Runway heading 0
Runway 5 Runway length 7431 ft Runway width 148 ft
Runway elevation 1381 ft Runway displaced threshold 0 ft Runway heading 178
Runway 23 Runway length 7431 ft Runway width 148 ft
Runway elevation 1381 ft Runway displaced threshold 0 ft Runway heading 358

 AIRPORT FREQUENCIES
Type APP Name APP/TWR Frequency 118.75 MHZ

 AIRPORT NEAR NAVIGATION AIDS
Type VOR Name Rio Cuarto Frequency 114200 KHZ